Погода в Рыбном

Россия / Рязанская область     54°43′50″N   39°30′19″E
темп.,
°C
ветер,
м/с
пор.,
м/с
влажн.,
%
обл.,
%
осадки,
мм/ч
давл.,
гПа
погр.,
м
17 апреля, сб
сб1700:00+10всв388797 0.1 1019158
03:00+10св4894100 0.6 1020242
06:00+8св599680 0.2 1020242
09:00+12всв6978100 0.2 1020496
12:00+17в8105599 0.1 10191140
15:00+19в81148100 0.2 10182049
18:00+16в9145885 1.5 10171366
21:00+12всв61268100 2.3 1018464
18 апреля, вс
вс1800:00+10всв71272100 0.0 1018564
03:00+8всв61266100 0.0 1019664
06:00+6в4880100 1.7 1019640
09:00+6всв5892100 6.7 1020375
12:00+5в4792100 1.3 1021450
15:00+6всв578997 1.3 1022429
18:00+7в588899 0.0 1022554
21:00+6всв4889100 0.0 1023428
19 апреля, пн
пн1900:00+5всв399578 0.0 1023258
03:00+6всв41091100 0.0 1023398
06:00+6всв51191100 0.1 1023560
09:00+6всв61088100 0.7 1024647
12:00+7всв7980100 0.1 1024943
15:00+5в71287100 0.1 1024809
18:00+6вюв61185100 0.4 1024961
21:00+6в7127577 1.2 1024896
20 апреля, вт
вт2000:00+4в71385100 0.0 1024690
03:00+4в61281100 0.0 1022671
06:00+4в71386100 0.0 1021680
09:00+5в81582100 0.1 1020796
12:00+6в91784100 1.6 1018843
15:00+7в101882100 3.3 10151056
18:00+7в122189100 4.9 10121148
21:00+7вюв132491100 15.1 10081308
21 апреля, ср
ср2100:00+8юв112190100 3.9 10061245
03:00+8вюв122189100 3.9 1003883
06:00+9ю61392100 3.4 1001829
09:00+9ююв132287100 5.6 10011652
12:00+6ю121890100 0.9 10041309
15:00+6ююз101685100 0.9 10081229
18:00+7ююз91479100 0.1 10111288
21:00+7ююз81482100 0.2 1014952